Regional Weather Roundup
Issued by NWS

Home | Current Version | Previous Version | Graphics & Text | Print | Product List | Glossary On
Versions: 1 2 3 4 5 6 7 8 9 10 11 12 13 14 15 16 17 18 19 20 21 22 23 24 25 26 27 28 29 30 31 32 33 34 35 36 37 38 39 40 41 42 43 44 45 46 47 48 49 50
000
ASUS43 KBIS 281610
RWRND

NORTH DAKOTA REGIONAL WEATHER ROUNDUP
NATIONAL WEATHER SERVICE BISMARCK ND
1100 AM CDT THU MAY 28 2015

NOTE: "FAIR" INDICATES FEW OR NO CLOUDS BELOW 12,000 FEET WITH NO
SIGNIFICANT WEATHER AND/OR OBSTRUCTIONS TO VISIBILITY.


NDZ001>003-009>011-017-281700-
NORTHWEST NORTH DAKOTA

CITY           SKY/WX    TMP DP  RH WIND       PRES   REMARKS
WILLISTON      CLOUDY    66  58  75 SW3       29.88R
MINOT          PTSUNNY   66  57  72 W8        29.85S
MINOT AFB      CLOUDY    65  65 100 NW5       29.84S
$$

NDZ018>021-031>035-040>046-281700-
SOUTHWEST NORTH DAKOTA

CITY           SKY/WX    TMP DP  RH WIND       PRES   REMARKS
BISMARCK       MOSUNNY   70  59  68 W7        29.87F
DICKINSON      MOSUNNY   67  55  65 VRB5      29.89S
GARRISON         N/A     65  60  84 W7        29.86R
HETTINGER ARPT PTSUNNY   64  56  75 W9        29.93S
$$

NDZ004>008-012>016-024-026-027-054-281700-
NORTHEAST NORTH DAKOTA

CITY           SKY/WX    TMP DP  RH WIND       PRES   REMARKS
GRAND FORKS    PTSUNNY   66  60  81 SE7       29.87F
GRND FRKS AFB  PTSUNNY   67  60  80 SE8       29.88S
DEVILS LAKE    MOSUNNY   70  57  64 S10       29.85F
$$

NDZ022-023-025-028>030-036>039-047>053-281700-
SOUTHEAST NORTH DAKOTA

CITY           SKY/WX    TMP DP  RH WIND       PRES   REMARKS
FARGO          PTSUNNY   71  62  73 SE10      29.88F
JAMESTOWN      MOSUNNY   71  61  70 S12       29.85S
$$



USA.gov is the U.S. government's official web portal to all federal, state and local government web resources and services.